TimeEDT,TemperatureF,Dew PointF,Humidity,Sea Level PressureIn,VisibilityMPH,Wind Direction,Wind SpeedMPH,Gust SpeedMPH,PrecipitationIn,Events,Conditions,WindDirDegrees,DateUTC
12:04 AM,30.2,28.4,93,30.04,4.0,West,8.1,-,0.00,Snow,Light Snow,260,2013-03-28 04:04:00
12:11 AM,30.2,28.4,93,30.04,2.5,West,9.2,-,0.00,Snow,Light Snow,260,2013-03-28 04:11:00
12:25 AM,30.2,28.4,93,30.04,4.0,West,9.2,-,0.00,Snow,Light Snow,260,2013-03-28 04:25:00
12:56 AM,30.0,28.0,92,30.09,5.0,West,10.4,-,0.00,,Overcast,260,2013-03-28 04:56:00
1:56 AM,30.9,28.0,89,30.07,2.5,West,13.8,-,0.00,Snow,Light Snow,260,2013-03-28 05:56:00
2:07 AM,30.2,28.4,93,30.02,1.5,West,12.7,-,0.00,Snow,Light Snow,260,2013-03-28 06:07:00
2:22 AM,30.2,28.4,93,30.02,2.5,West,10.4,-,0.00,Snow,Light Snow,270,2013-03-28 06:22:00
2:29 AM,30.2,28.4,93,30.02,4.0,West,12.7,-,0.00,,Overcast,260,2013-03-28 06:29:00
2:56 AM,30.9,28.9,92,30.07,9.0,West,10.4,-,0.00,,Overcast,260,2013-03-28 06:56:00
3:56 AM,30.9,28.9,92,30.06,6.0,West,11.5,-,0.00,Snow,Light Snow,260,2013-03-28 07:56:00
4:45 AM,30.2,28.4,93,30.01,2.5,West,9.2,-,0.00,Snow,Light Snow,280,2013-03-28 08:45:00
4:56 AM,30.9,28.9,92,30.06,3.0,WNW,11.5,-,0.00,Snow,Light Snow,290,2013-03-28 08:56:00
5:00 AM,30.2,28.4,93,30.01,1.8,WNW,9.2,-,0.00,Snow,Light Snow,290,2013-03-28 09:00:00
5:15 AM,30.2,26.6,86,30.02,2.0,NW,12.7,-,0.00,Snow,Light Snow,320,2013-03-28 09:15:00
5:24 AM,30.2,26.6,86,30.03,7.0,NW,9.2,-,0.00,,Overcast,310,2013-03-28 09:24:00
5:56 AM,30.0,26.1,85,30.08,10.0,NW,10.4,-,0.00,,Overcast,310,2013-03-28 09:56:00
6:10 AM,28.4,26.6,93,30.04,10.0,WNW,9.2,-,N/A,,Overcast,300,2013-03-28 10:10:00
6:56 AM,28.9,25.0,85,30.10,10.0,West,9.2,-,N/A,,Overcast,280,2013-03-28 10:56:00
7:16 AM,28.4,24.8,86,30.06,10.0,WNW,8.1,-,N/A,,Mostly Cloudy,290,2013-03-28 11:16:00
7:27 AM,28.4,24.8,86,30.06,10.0,WNW,10.4,-,N/A,,Overcast,290,2013-03-28 11:27:00
7:56 AM,28.9,26.1,89,30.12,10.0,WNW,10.4,-,N/A,,Overcast,290,2013-03-28 11:56:00
8:40 AM,30.2,26.6,86,30.08,10.0,WNW,9.2,-,N/A,,Overcast,290,2013-03-28 12:40:00
8:56 AM,30.0,26.1,85,30.14,10.0,West,9.2,-,N/A,,Overcast,280,2013-03-28 12:56:00
9:04 AM,30.2,26.6,86,30.09,10.0,WNW,11.5,-,N/A,,Overcast,290,2013-03-28 13:04:00
9:20 AM,30.2,26.6,86,30.09,1.8,WNW,9.2,-,0.00,Snow,Light Snow,290,2013-03-28 13:20:00
9:44 AM,30.2,28.4,93,30.10,1.0,WNW,6.9,-,0.00,Snow,Light Snow,290,2013-03-28 13:44:00
9:47 AM,30.2,28.4,93,30.10,1.0,WNW,5.8,-,0.00,Snow,Light Snow,300,2013-03-28 13:47:00
9:49 AM,30.2,28.4,93,30.10,0.8,NW,6.9,-,0.00,Snow,Light Snow,310,2013-03-28 13:49:00
9:56 AM,30.0,28.0,92,30.16,1.0,WNW,6.9,-,0.00,Snow,Light Snow,300,2013-03-28 13:56:00
10:07 AM,30.2,28.4,93,30.10,3.0,WNW,8.1,-,0.00,Snow,Light Snow,300,2013-03-28 14:07:00
10:19 AM,30.2,28.4,93,30.10,7.0,WNW,6.9,-,0.00,,Overcast,300,2013-03-28 14:19:00
10:33 AM,30.2,26.6,86,30.11,4.0,NW,9.2,-,0.00,,Overcast,310,2013-03-28 14:33:00
10:42 AM,30.2,28.4,93,30.11,3.0,WNW,5.8,-,0.00,,Overcast,290,2013-03-28 14:42:00
10:44 AM,30.2,28.4,93,30.11,3.0,WNW,8.1,-,0.00,,Overcast,290,2013-03-28 14:44:00
10:56 AM,32.0,28.0,85,30.17,6.0,NW,6.9,-,0.00,,Overcast,320,2013-03-28 14:56:00
11:34 AM,32.0,28.4,87,30.12,8.0,NW,9.2,17.3,N/A,,Overcast,310,2013-03-28 15:34:00
11:56 AM,33.1,28.0,82,30.17,8.0,WNW,10.4,-,0.00,,Overcast,290,2013-03-28 15:56:00
12:20 PM,33.8,28.4,81,30.12,5.0,WNW,9.2,-,N/A,,Haze,290,2013-03-28 16:20:00
12:30 PM,33.8,28.4,81,30.12,2.5,NW,8.1,18.4,N/A,,Haze,310,2013-03-28 16:30:00
12:37 PM,33.8,28.4,81,30.12,9.0,WNW,8.1,-,N/A,,Overcast,290,2013-03-28 16:37:00
12:56 PM,34.0,27.0,75,30.17,10.0,West,10.4,-,N/A,,Overcast,280,2013-03-28 16:56:00
1:32 PM,35.6,28.4,75,30.12,10.0,West,6.9,-,N/A,,Overcast,270,2013-03-28 17:32:00
1:56 PM,35.1,27.0,72,30.17,10.0,WNW,11.5,-,N/A,,Overcast,290,2013-03-28 17:56:00
2:56 PM,35.1,28.0,76,30.17,10.0,WNW,10.4,-,N/A,,Overcast,290,2013-03-28 18:56:00
3:15 PM,35.6,28.4,75,30.12,10.0,West,8.1,-,N/A,,Overcast,280,2013-03-28 19:15:00
3:24 PM,35.6,26.6,70,30.12,10.0,NW,9.2,16.1,N/A,,Overcast,310,2013-03-28 19:24:00
3:39 PM,35.6,28.4,75,30.12,10.0,WNW,9.2,-,N/A,,Overcast,290,2013-03-28 19:39:00
3:56 PM,36.0,27.0,70,30.16,10.0,NW,11.5,16.1,N/A,,Overcast,310,2013-03-28 19:56:00
4:33 PM,33.8,30.2,87,30.12,2.0,West,10.4,-,0.00,Snow,Light Snow,280,2013-03-28 20:33:00
4:42 PM,33.8,28.4,81,30.13,9.0,West,11.5,-,0.00,,Overcast,280,2013-03-28 20:42:00
4:52 PM,33.8,30.2,87,30.13,5.0,West,12.7,-,0.00,,Overcast,270,2013-03-28 20:52:00
4:56 PM,34.0,30.0,85,30.18,3.0,West,10.4,-,0.00,Snow,Light Snow,280,2013-03-28 20:56:00
5:28 PM,33.8,28.4,81,30.13,10.0,WNW,10.4,-,0.00,,Overcast,290,2013-03-28 21:28:00
5:36 PM,33.8,28.4,81,30.14,10.0,West,8.1,-,0.00,,Overcast,280,2013-03-28 21:36:00
5:44 PM,33.8,28.4,81,30.14,10.0,West,11.5,-,0.00,,Overcast,280,2013-03-28 21:44:00
5:56 PM,34.0,28.0,79,30.20,10.0,WNW,10.4,-,0.00,,Overcast,300,2013-03-28 21:56:00
6:14 PM,33.8,28.4,81,30.15,10.0,WNW,9.2,-,N/A,,Overcast,290,2013-03-28 22:14:00
6:45 PM,33.8,28.4,81,30.16,10.0,WNW,10.4,-,N/A,,Overcast,290,2013-03-28 22:45:00
6:56 PM,33.1,28.0,82,30.22,10.0,WNW,10.4,-,N/A,,Overcast,300,2013-03-28 22:56:00
7:04 PM,33.8,28.4,81,30.16,10.0,WNW,11.5,-,N/A,,Overcast,290,2013-03-28 23:04:00
7:15 PM,33.8,28.4,81,30.17,10.0,WNW,8.1,-,N/A,,Overcast,290,2013-03-28 23:15:00
7:56 PM,32.0,28.9,88,30.23,2.0,WNW,6.9,-,0.00,Snow,Light Snow,290,2013-03-28 23:56:00
8:07 PM,32.0,28.4,87,30.18,9.0,WNW,8.1,-,0.00,,Overcast,290,2013-03-29 00:07:00
8:56 PM,32.0,28.9,88,30.25,10.0,WNW,5.8,-,0.00,,Overcast,290,2013-03-29 00:56:00
9:56 PM,32.0,28.9,88,30.25,10.0,West,5.8,-,N/A,,Overcast,280,2013-03-29 01:56:00
10:56 PM,32.0,28.0,85,30.25,10.0,West,4.6,-,N/A,,Overcast,270,2013-03-29 02:56:00
11:56 PM,32.0,28.0,85,30.24,10.0,West,4.6,-,N/A,,Overcast,270,2013-03-29 03:56:00